sat.trackr.live / text

‹ back to catalog

TIANQI-3

NORAD 44314 · 2019-032E

PAYLOAD ACTIVE UNKNOWN

§ Identity

Operator
Country
PRC
Launch date
2019-06-05
Launch site
YSLA
Launch vehicle
Mass (kg)
RCS (m²)

External: N2YO · Heavens-Above · Gunter

§ Orbital elements

Epoch: 2026-05-25T04:21:51.979104Z

Period
93.64 min
Inclination
44.9994°
Eccentricity
0.0007231
Mean motion
15.37821549 rev/d
Perigee alt
447.6 km
Apogee alt
457.5 km
Semi-major
6,830.7 km
B*
4.9168e-4
RAAN
107.3510°
Arg perigee
198.3257°
Mean anomaly
161.7370°
Rev number
38,453

§ Raw data

TIANQI-31 44314U 19032E   26145.18185161  .00018381  00000+0  49168-3 0  99912 44314  44.9994 107.3510 0007231 198.3257 161.7370 15.37821549384535

JSON: /api/v1/satellites/44314 · /tle

For live sub-satellite position, see the globe view (requires WebGL).

§ Visibility from observer

Set your observer location to see the next 7 days of passes ≥ 10°. The values pass through the URL so the page stays shareable.

No JS? Fill the form by hand. The geolocation button needs JavaScript.